Location: Roland
(31.1349°N, 85.4372°W)
Time: 19:13:06
(UTC+00:00)

Vanguard 2 Rocket - Pass Details

Date: 21 April 2021
Orbit: 554 x 3326 km, 32.9° (Epoch: 13 May)

Event Time Altitude Azimuth Distance (km) Brightness Sun altitude
Rises 01:29:36 0° 288° (WNW) 7,161 13.3 -16.1°
Reaches altitude 10° 01:35:08 10° 283° (WNW) 5,905 12.2 -17.2°
Maximum altitude 01:50:29 42° 221° (SW) 2,924 9.5 -20.1°
Enters shadow 01:58:12 18° 161° (SSE) 3,357 9.3 -21.5°
